Погода в Кропачёво

Россия / Челябинская область     55°00′38″N   57°59′03″E
темп.,
°C
ветер,
м/с
пор.,
м/с
влажн.,
%
обл.,
%
осадки,
мм/ч
давл.,
гПа
погр.,
м
17 мая, вт
вт1723:00+7ююз37935 1.3 1000149
02:00+7зюз4997100 0.0 1001506
05:00+7юз4891100 0.1 1001461
08:00+9зюз5885100 0.1 1001643
11:00+12зюз467034 0.3 10021130
14:00+14зюз5661100 1.3 10011659
17:00+13юз466498 2.4 10021188
20:00+11юз4880100 2.9 1002209
18 мая, ср
ср1823:00+9юз5118829 4.2 1004492
02:00+6ююз379394 0.0 1004151
05:00+5ююв22920 0.0 100425
08:00+8ю247968 0.0 1004250
11:00+9ю5977100 0.3 10021138
14:00+10юз5775100 0.3 10021046
17:00+11зюз576798 0.8 10011171
20:00+9юз487813 0.6 1001400
19 мая, чт
чт1923:00+6юз511898 0.6 1002426
02:00+6зюз61094100 0.0 1002653
05:00+6зюз61090100 0.4 10021101
08:00+3зюз71297100 0.6 1005737
11:00+4зюз61085100 0.6 10071023
14:00+7юз698799 0.3 1007798
17:00+7зюз698499 1.4 1007949
20:00+6з5991100 1.3 1007799
20 мая, пт
пт2023:00+3юз359699 1.6 1009118
02:00+2ююз389694 0.1 1008264
05:00+4юз2693100 0.2 1008306
08:00+4зюз5993100 0.7 1009751
11:00+4юз479599 1.1 1009483
14:00+5зюз5108758 0.4 1010765
17:00+7зюз687299 1.1 10081137
20:00+6зюз3678100 0.6 1008304
21 мая, сб
сб2123:00+2ююз229071 0.6 100724
02:00+2зюз3698100 1.3 1006424
05:00+2юз3799100 2.9 1005414
08:00+2зюз4792100 0.3 1005812
11:00+3зюз698690 0.5 1005830
14:00+2зюз51095100 0.5 1005598
17:00+1зюз41098100 1.3 1006437
20:00+1зюз51099100 0.6 1006455